Regional Weather Roundup
Issued by NWS

Home | Current Version | Previous Version | Text Only | Print | Product List | Glossary On
Versions: 1 2 3 4 5 6 7 8 9 10 11 12 13 14 15 16 17 18 19 20 21 22 23 24 25 26 27 28 29 30 31 32 33 34 35 36 37 38 39 40 41 42 43 44 45 46 47 48 49 50
000
ASUS46 KPQR 300410
RWROR

OREGON REGIONAL WEATHER ROUNDUP
NATIONAL WEATHER SERVICE PORTLAND OR
900 PM PDT FRI AUG 29 2014

NOTE: "FAIR" INDICATES FEW OR NO CLOUDS BELOW 12,000 FEET WITH
NO SIGNIFICANT WEATHER AND/OR OBSTRUCTIONS TO VISIBILITY.

ORZ001>013-300500-
NORTHWEST OREGON


CITY           SKY/WX    TMP DP  RH WIND       PRES   REMARKS
ASTORIA        CLOUDY    59  58  96 SW8       29.98R
NEWPORT        FOG       59  57  94 CALM      30.03F VSB 1/2
PORTLAND       MOCLDY    70  57  63 NW5       29.96R
VANCOUVER WA   PTCLDY    70  55  59 N5        29.96R
SCAPPOOSE      PTCLDY    68  57  68 N8        29.96R
HILLSBORO      PTCLDY    67  55  65 NW5       29.96R
AURORA         MOCLDY    69  56  62 CALM      29.97R
MCMINNVILLE    PTCLDY    65  55  70 W5        29.97R
SALEM          CLEAR     69  55  60 W8        29.96R
CORVALLIS      CLEAR     66  55  68 W12       30.00R
EUGENE         PTCLDY    67  54  63 W5        29.98R
$$

ORZ021-028-300500-
SOUTHWEST OREGON


CITY           SKY/WX    TMP DP  RH WIND       PRES   REMARKS
NORTH BEND     CLOUDY    61  61 100 CALM      30.02R
BROOKINGS      CLEAR     59  57  92 CALM      30.00S
ROSEBURG       CLEAR     74  51  44 N8        29.96R
SEXTON SUMMIT  CLEAR     58  47  66 N7        30.05R
MEDFORD        CLEAR     77  50  38 N5        29.94R
$$

ORZ009-041-300500-
COLUMBIA GORGE


CITY           SKY/WX    TMP DP  RH WIND       PRES   REMARKS
TROUTDALE      PTCLDY    71  54  54 CALM      29.94R
THE DALLES     CLOUDY    72  50  45 W15G21    29.89R
$$

ORZ029>031-042>050-061>064-300500-
EASTERN OREGON


CITY           SKY/WX    TMP DP  RH WIND       PRES   REMARKS
REDMOND        CLOUDY    66  43  43 NW13      29.97R
BEND           MOCLDY    64  46  52 CALM      30.00R
KLAMATH FALLS  CLOUDY    66  41  40 W6        30.01R
LAKEVIEW       CLOUDY    61  36  39 NE5       30.04R
HERMISTON      CLOUDY    73  50  44 SW12G18   29.86R
PENDLETON      CLOUDY    71  46  40 W16       29.88R
JOHN DAY       CLOUDY    69  45  41 W5        29.98R
MEACHAM        CLOUDY    64  38  38 VRB3      29.99R
LA GRANDE      CLOUDY    72  39  30 NW16      29.92R
BAKER CITY     CLOUDY    66  42  41 NW18      29.91R
BURNS          MOCLDY    73  35  25 W15       29.94R
ROME             N/A     78  37  22 N5        29.89R
ONTARIO        MOCLDY    79  49  34 N6        29.76R
$$



USA.gov is the U.S. government's official web portal to all federal, state and local government web resources and services.